Time,TemperatureF,DewpointF,PressureIn,WindDirection,WindDirectionDegrees,WindSpeedMPH,WindSpeedGustMPH,Humidity,HourlyPrecipIn,Conditions,Clouds,dailyrainin,SoftwareType,DateUTC
2013-10-22 00:01:00,27.4,22.9,29.97,NW,309,0.0,0.0,83,0.00,,,0.00,vanprod-2.3,2013-10-22 05:01:00,
2013-10-22 00:06:00,27.4,22.9,29.97,NW,309,0.0,0.0,83,0.00,,,0.00,vanprod-2.3,2013-10-22 05:06:00,
2013-10-22 00:11:00,27.3,22.8,29.97,NW,309,0.0,0.0,83,0.00,,,0.00,vanprod-2.3,2013-10-22 05:11:00,
2013-10-22 00:16:00,27.1,22.6,29.97,NW,309,0.0,0.0,83,0.00,,,0.00,vanprod-2.3,2013-10-22 05:16:00,
2013-10-22 00:21:00,27.1,22.9,29.97,NW,309,0.0,0.0,84,0.00,,,0.00,vanprod-2.3,2013-10-22 05:21:00,
2013-10-22 00:26:00,27.3,23.1,29.97,NW,309,0.0,0.0,84,0.00,,,0.00,vanprod-2.3,2013-10-22 05:26:00,
2013-10-22 00:31:00,27.3,23.1,29.97,NW,309,0.0,0.0,84,0.00,,,0.00,vanprod-2.3,2013-10-22 05:31:00,
2013-10-22 00:36:00,27.4,22.9,29.97,NW,309,0.0,0.0,83,0.00,,,0.00,vanprod-2.3,2013-10-22 05:36:00,
2013-10-22 00:41:00,27.3,22.8,29.98,NW,309,0.0,0.0,83,0.00,,,0.00,vanprod-2.3,2013-10-22 05:41:00,
2013-10-22 00:46:00,27.3,22.8,29.98,NW,309,0.0,0.0,83,0.00,,,0.00,vanprod-2.3,2013-10-22 05:46:00,
2013-10-22 00:51:00,27.1,22.9,29.98,NW,309,0.0,0.0,84,0.00,,,0.00,vanprod-2.3,2013-10-22 05:51:00,
2013-10-22 00:56:00,27.0,23.1,29.98,NW,309,0.0,0.0,85,0.00,,,0.00,vanprod-2.3,2013-10-22 05:56:00,
2013-10-22 01:01:00,26.8,23.2,29.98,NW,309,0.0,0.0,86,0.00,,,0.00,vanprod-2.3,2013-10-22 06:01:00,
2013-10-22 01:06:00,27.0,23.4,29.98,NW,309,0.0,0.0,86,0.00,,,0.00,vanprod-2.3,2013-10-22 06:06:00,
2013-10-22 01:11:00,27.0,23.4,29.98,NW,309,0.0,0.0,86,0.00,,,0.00,vanprod-2.3,2013-10-22 06:11:00,
2013-10-22 01:16:00,27.1,23.5,29.98,NW,309,0.0,0.0,86,0.00,,,0.00,vanprod-2.3,2013-10-22 06:16:00,
2013-10-22 01:21:00,27.1,23.5,29.98,NW,309,0.0,0.0,86,0.00,,,0.00,vanprod-2.3,2013-10-22 06:21:00,
2013-10-22 01:26:00,27.3,23.4,29.98,NW,309,0.0,0.0,85,0.00,,,0.00,vanprod-2.3,2013-10-22 06:26:00,
2013-10-22 01:31:00,27.3,23.4,29.98,NW,309,0.0,0.0,85,0.00,,,0.00,vanprod-2.3,2013-10-22 06:31:00,
2013-10-22 01:36:00,27.1,23.2,29.98,NW,309,0.0,0.0,85,0.00,,,0.00,vanprod-2.3,2013-10-22 06:36:00,
2013-10-22 01:41:00,27.0,23.1,29.98,NW,309,0.0,0.0,85,0.00,,,0.00,vanprod-2.3,2013-10-22 06:41:00,
2013-10-22 01:46:00,26.8,22.9,29.98,NW,309,0.0,0.0,85,0.00,,,0.00,vanprod-2.3,2013-10-22 06:46:00,
2013-10-22 01:51:00,26.8,23.2,29.98,NW,309,0.0,0.0,86,0.00,,,0.00,vanprod-2.3,2013-10-22 06:51:00,
2013-10-22 01:56:00,26.7,23.1,29.98,NW,309,0.0,0.0,86,0.00,,,0.00,vanprod-2.3,2013-10-22 06:56:00,
2013-10-22 02:01:00,26.7,23.1,29.98,NW,309,0.0,0.0,86,0.00,,,0.00,vanprod-2.3,2013-10-22 07:01:00,
2013-10-22 02:06:00,26.7,23.1,29.98,NW,309,0.0,0.0,86,0.00,,,0.00,vanprod-2.3,2013-10-22 07:06:00,
2013-10-22 02:11:00,26.7,22.8,29.98,NW,309,0.0,0.0,85,0.00,,,0.00,vanprod-2.3,2013-10-22 07:11:00,
2013-10-22 02:16:00,26.7,22.8,29.99,NW,309,0.0,0.0,85,0.00,,,0.00,vanprod-2.3,2013-10-22 07:16:00,
2013-10-22 02:21:00,26.5,22.9,29.99,NW,309,0.0,0.0,86,0.00,,,0.00,vanprod-2.3,2013-10-22 07:21:00,
2013-10-22 02:26:00,26.4,22.8,29.99,NW,309,0.0,0.0,86,0.00,,,0.00,vanprod-2.3,2013-10-22 07:26:00,
2013-10-22 02:31:00,26.2,22.9,29.99,NW,309,0.0,0.0,87,0.00,,,0.00,vanprod-2.3,2013-10-22 07:31:00,
2013-10-22 02:36:00,26.4,22.8,29.99,NW,309,0.0,0.0,86,0.00,,,0.00,vanprod-2.3,2013-10-22 07:36:00,
2013-10-22 02:41:00,26.4,22.8,29.99,NW,309,0.0,0.0,86,0.00,,,0.00,vanprod-2.3,2013-10-22 07:41:00,
2013-10-22 02:46:00,26.4,23.1,29.98,NW,309,0.0,0.0,87,0.00,,,0.00,vanprod-2.3,2013-10-22 07:46:00,
2013-10-22 02:51:00,26.5,23.2,29.98,NW,309,0.0,0.0,87,0.00,,,0.00,vanprod-2.3,2013-10-22 07:51:00,
2013-10-22 02:56:00,26.5,22.9,29.99,NW,309,0.0,0.0,86,0.00,,,0.00,vanprod-2.3,2013-10-22 07:56:00,
2013-10-22 03:01:00,26.5,22.9,29.99,NW,309,0.0,0.0,86,0.00,,,0.00,vanprod-2.3,2013-10-22 08:01:00,
2013-10-22 03:06:00,26.7,23.1,29.99,NW,309,0.0,0.0,86,0.00,,,0.00,vanprod-2.3,2013-10-22 08:06:00,
2013-10-22 03:11:00,26.7,23.1,29.99,NW,309,0.0,0.0,86,0.00,,,0.00,vanprod-2.3,2013-10-22 08:11:00,
2013-10-22 03:16:00,26.8,23.2,29.99,NW,309,0.0,0.0,86,0.00,,,0.00,vanprod-2.3,2013-10-22 08:16:00,
2013-10-22 03:21:00,26.8,22.9,29.99,NW,309,0.0,0.0,85,0.00,,,0.00,vanprod-2.3,2013-10-22 08:21:00,
2013-10-22 03:26:00,27.0,23.1,29.98,NW,309,0.0,0.0,85,0.00,,,0.00,vanprod-2.3,2013-10-22 08:26:00,
2013-10-22 03:31:00,27.1,23.2,29.98,NW,309,0.0,0.0,85,0.00,,,0.00,vanprod-2.3,2013-10-22 08:31:00,
2013-10-22 03:36:00,27.3,23.4,29.98,NW,309,0.0,0.0,85,0.00,,,0.00,vanprod-2.3,2013-10-22 08:36:00,
2013-10-22 03:41:00,27.4,23.5,29.99,NW,309,0.0,0.0,85,0.00,,,0.00,vanprod-2.3,2013-10-22 08:41:00,
2013-10-22 03:46:00,27.6,23.7,29.98,NW,309,0.0,0.0,85,0.00,,,0.00,vanprod-2.3,2013-10-22 08:46:00,
2013-10-22 03:51:00,27.6,23.7,29.98,NW,309,0.0,0.0,85,0.00,,,0.00,vanprod-2.3,2013-10-22 08:51:00,
2013-10-22 03:56:00,27.4,23.5,29.98,NW,309,0.0,0.0,85,0.00,,,0.00,vanprod-2.3,2013-10-22 08:56:00,
2013-10-22 04:01:00,27.3,23.7,29.98,NW,309,0.0,0.0,86,0.00,,,0.00,vanprod-2.3,2013-10-22 09:01:00,
2013-10-22 04:06:00,27.3,23.9,29.98,NW,309,0.0,0.0,87,0.00,,,0.00,vanprod-2.3,2013-10-22 09:06:00,
2013-10-22 04:11:00,27.3,23.9,29.98,NW,309,0.0,0.0,87,0.00,,,0.00,vanprod-2.3,2013-10-22 09:11:00,
2013-10-22 04:16:00,27.4,24.0,29.98,NW,309,0.0,0.0,87,0.00,,,0.00,vanprod-2.3,2013-10-22 09:16:00,
2013-10-22 04:21:00,27.6,24.2,29.98,NW,309,0.0,0.0,87,0.00,,,0.00,vanprod-2.3,2013-10-22 09:21:00,
2013-10-22 04:26:00,27.7,24.1,29.98,NW,309,0.0,0.0,86,0.00,,,0.00,vanprod-2.3,2013-10-22 09:26:00,
2013-10-22 04:31:00,27.9,24.3,29.98,NW,309,0.0,0.0,86,0.00,,,0.00,vanprod-2.3,2013-10-22 09:31:00,
2013-10-22 04:36:00,28.0,24.4,29.98,NW,309,0.0,0.0,86,0.00,,,0.00,vanprod-2.3,2013-10-22 09:36:00,
2013-10-22 04:41:00,28.2,24.3,29.98,NW,309,0.0,0.0,85,0.00,,,0.00,vanprod-2.3,2013-10-22 09:41:00,
2013-10-22 04:46:00,28.2,24.3,29.98,NW,309,0.0,0.0,85,0.00,,,0.00,vanprod-2.3,2013-10-22 09:46:00,
2013-10-22 04:51:00,28.3,24.4,29.98,NW,309,0.0,0.0,85,0.00,,,0.00,vanprod-2.3,2013-10-22 09:51:00,
2013-10-22 04:56:00,28.3,24.4,29.98,NW,309,0.0,0.0,85,0.00,,,0.00,vanprod-2.3,2013-10-22 09:56:00,
2013-10-22 05:01:00,28.5,24.6,29.98,NW,309,0.0,0.0,85,0.00,,,0.00,vanprod-2.3,2013-10-22 10:01:00,
2013-10-22 05:06:00,28.5,24.6,29.98,NW,309,0.0,0.0,85,0.00,,,0.00,vanprod-2.3,2013-10-22 10:06:00,
2013-10-22 05:11:00,28.5,24.6,29.98,NW,309,0.0,0.0,85,0.00,,,0.00,vanprod-2.3,2013-10-22 10:11:00,
2013-10-22 05:16:00,28.5,24.9,29.98,NW,309,0.0,0.0,86,0.00,,,0.00,vanprod-2.3,2013-10-22 10:16:00,
2013-10-22 05:21:00,28.5,24.9,29.98,NW,309,0.0,0.0,86,0.00,,,0.00,vanprod-2.3,2013-10-22 10:21:00,
2013-10-22 05:26:00,28.5,24.9,29.98,NW,309,0.0,0.0,86,0.00,,,0.00,vanprod-2.3,2013-10-22 10:26:00,
2013-10-22 05:31:00,28.6,25.0,29.98,NW,309,0.0,0.0,86,0.00,,,0.00,vanprod-2.3,2013-10-22 10:31:00,
2013-10-22 05:36:00,28.6,25.0,29.99,NW,309,0.0,0.0,86,0.00,,,0.00,vanprod-2.3,2013-10-22 10:36:00,
2013-10-22 05:41:00,28.6,25.0,29.98,NW,309,0.0,0.0,86,0.00,,,0.00,vanprod-2.3,2013-10-22 10:41:00,
2013-10-22 05:46:00,28.6,25.0,29.99,NW,309,0.0,0.0,86,0.00,,,0.00,vanprod-2.3,2013-10-22 10:46:00,
2013-10-22 05:51:00,28.8,25.1,29.99,NW,309,0.0,0.0,86,0.00,,,0.00,vanprod-2.3,2013-10-22 10:51:00,
2013-10-22 05:56:00,28.8,25.4,29.99,NW,309,0.0,0.0,87,0.00,,,0.00,vanprod-2.3,2013-10-22 10:56:00,
2013-10-22 06:01:00,28.9,25.5,29.99,NW,309,0.0,1.0,87,0.00,,,0.00,vanprod-2.3,2013-10-22 11:01:00,
2013-10-22 06:06:00,28.9,25.5,30.00,NW,309,0.0,0.0,87,0.00,,,0.00,vanprod-2.3,2013-10-22 11:06:00,
2013-10-22 06:11:00,28.9,25.5,30.00,NW,309,0.0,0.0,87,0.00,,,0.00,vanprod-2.3,2013-10-22 11:11:00,
2013-10-22 06:16:00,28.8,25.4,30.00,NW,309,0.0,0.0,87,0.00,,,0.00,vanprod-2.3,2013-10-22 11:16:00,
2013-10-22 06:21:00,28.8,25.4,30.00,NW,309,0.0,0.0,87,0.00,,,0.00,vanprod-2.3,2013-10-22 11:21:00,
2013-10-22 06:26:00,28.8,25.4,30.00,NW,309,0.0,0.0,87,0.00,,,0.00,vanprod-2.3,2013-10-22 11:26:00,
2013-10-22 06:31:00,28.8,25.4,30.00,NW,309,0.0,0.0,87,0.00,,,0.00,vanprod-2.3,2013-10-22 11:31:00,
2013-10-22 06:36:00,28.8,25.4,30.00,NW,309,0.0,0.0,87,0.00,,,0.00,vanprod-2.3,2013-10-22 11:36:00,
2013-10-22 06:41:00,28.8,25.4,30.00,NW,309,0.0,1.0,87,0.00,,,0.00,vanprod-2.3,2013-10-22 11:41:00,
2013-10-22 06:46:00,28.8,25.4,30.00,NW,309,0.0,1.0,87,0.00,,,0.00,vanprod-2.3,2013-10-22 11:46:00,
2013-10-22 06:51:00,28.8,25.4,30.00,NW,309,0.0,0.0,87,0.00,,,0.00,vanprod-2.3,2013-10-22 11:51:00,
2013-10-22 06:56:00,28.9,25.5,30.00,NW,309,0.0,0.0,87,0.00,,,0.00,vanprod-2.3,2013-10-22 11:56:00,
2013-10-22 07:01:00,28.9,25.5,30.00,NW,309,0.0,0.0,87,0.00,,,0.00,vanprod-2.3,2013-10-22 12:01:00,
2013-10-22 07:06:00,28.9,25.5,30.00,NW,309,0.0,1.0,87,0.00,,,0.00,vanprod-2.3,2013-10-22 12:06:00,
2013-10-22 07:11:00,28.9,25.5,30.00,NW,309,0.0,0.0,87,0.00,,,0.00,vanprod-2.3,2013-10-22 12:11:00,
2013-10-22 07:16:00,28.9,25.5,30.00,NW,309,0.0,1.0,87,0.00,,,0.00,vanprod-2.3,2013-10-22 12:16:00,
2013-10-22 07:21:00,28.9,25.5,30.00,NW,309,0.0,0.0,87,0.00,,,0.00,vanprod-2.3,2013-10-22 12:21:00,
2013-10-22 07:26:00,28.9,25.5,30.00,NW,309,0.0,0.0,87,0.00,,,0.00,vanprod-2.3,2013-10-22 12:26:00,
2013-10-22 07:31:00,28.8,25.4,30.00,NW,309,0.0,0.0,87,0.00,,,0.00,vanprod-2.3,2013-10-22 12:31:00,
2013-10-22 07:36:00,28.6,25.2,30.01,NW,309,1.0,0.0,87,0.00,,,0.00,vanprod-2.3,2013-10-22 12:36:00,
2013-10-22 07:41:00,28.6,25.2,30.01,NW,309,1.0,3.0,87,0.00,,,0.00,vanprod-2.3,2013-10-22 12:41:00,
2013-10-22 07:46:00,28.5,25.1,30.01,NW,309,0.0,1.0,87,0.00,,,0.00,vanprod-2.3,2013-10-22 12:46:00,
2013-10-22 07:51:00,28.3,24.9,30.01,NW,309,0.0,0.0,87,0.00,,,0.00,vanprod-2.3,2013-10-22 12:51:00,
2013-10-22 07:56:00,28.3,24.9,30.01,NW,309,0.0,0.0,87,0.00,,,0.00,vanprod-2.3,2013-10-22 12:56:00,
2013-10-22 08:01:00,28.2,25.1,30.01,NW,309,0.0,1.0,88,0.00,,,0.00,vanprod-2.3,2013-10-22 13:01:00,
2013-10-22 08:06:00,28.2,25.1,30.01,NW,309,0.0,0.0,88,0.00,,,0.00,vanprod-2.3,2013-10-22 13:06:00,
2013-10-22 08:11:00,28.3,25.2,30.01,NW,309,0.0,0.0,88,0.00,,,0.00,vanprod-2.3,2013-10-22 13:11:00,
2013-10-22 08:16:00,28.3,25.2,30.01,NW,309,0.0,0.0,88,0.00,,,0.00,vanprod-2.3,2013-10-22 13:16:00,
2013-10-22 08:21:00,28.5,25.1,30.01,NW,309,0.0,0.0,87,0.00,,,0.00,vanprod-2.3,2013-10-22 13:21:00,
2013-10-22 08:26:00,28.6,25.2,30.02,NW,309,0.0,0.0,87,0.00,,,0.00,vanprod-2.3,2013-10-22 13:26:00,
2013-10-22 08:31:00,28.9,25.8,30.02,NW,309,0.0,0.0,88,0.00,,,0.00,vanprod-2.3,2013-10-22 13:31:00,
2013-10-22 08:36:00,29.0,25.6,30.02,NW,309,0.0,0.0,87,0.00,,,0.00,vanprod-2.3,2013-10-22 13:36:00,
2013-10-22 08:41:00,29.2,25.8,30.02,NW,309,0.0,0.0,87,0.00,,,0.00,vanprod-2.3,2013-10-22 13:41:00,
2013-10-22 08:46:00,29.2,25.8,30.03,NW,309,0.0,0.0,87,0.00,,,0.00,vanprod-2.3,2013-10-22 13:46:00,
2013-10-22 08:51:00,29.3,25.9,30.03,NW,309,0.0,0.0,87,0.00,,,0.00,vanprod-2.3,2013-10-22 13:51:00,
2013-10-22 08:56:00,29.2,25.5,30.03,NW,309,0.0,0.0,86,0.00,,,0.00,vanprod-2.3,2013-10-22 13:56:00,
2013-10-22 09:01:00,29.2,25.5,30.03,NW,309,0.0,0.0,86,0.00,,,0.00,vanprod-2.3,2013-10-22 14:01:00,
2013-10-22 09:06:00,29.2,25.5,30.03,NW,309,0.0,0.0,86,0.00,,,0.00,vanprod-2.3,2013-10-22 14:06:00,
2013-10-22 09:11:00,29.3,25.6,30.03,NW,309,0.0,0.0,86,0.00,,,0.00,vanprod-2.3,2013-10-22 14:11:00,
2013-10-22 09:16:00,29.5,25.8,30.04,NW,309,0.0,0.0,86,0.00,,,0.00,vanprod-2.3,2013-10-22 14:16:00,
2013-10-22 09:21:00,29.6,25.9,30.04,NW,309,0.0,0.0,86,0.00,,,0.00,vanprod-2.3,2013-10-22 14:21:00,
2013-10-22 09:26:00,29.9,26.2,30.04,NW,309,0.0,0.0,86,0.00,,,0.00,vanprod-2.3,2013-10-22 14:26:00,
2013-10-22 09:31:00,30.1,26.1,30.04,NW,309,0.0,0.0,85,0.00,,,0.00,vanprod-2.3,2013-10-22 14:31:00,
2013-10-22 09:36:00,30.2,26.2,30.04,NW,309,0.0,0.0,85,0.00,,,0.00,vanprod-2.3,2013-10-22 14:36:00,
2013-10-22 09:41:00,30.4,26.4,30.04,NW,309,1.0,2.0,85,0.00,,,0.00,vanprod-2.3,2013-10-22 14:41:00,
2013-10-22 09:46:00,30.5,26.5,30.04,NW,309,0.0,1.0,85,0.00,,,0.00,vanprod-2.3,2013-10-22 14:46:00,
2013-10-22 09:51:00,30.8,26.8,30.04,NW,309,0.0,0.0,85,0.00,,,0.00,vanprod-2.3,2013-10-22 14:51:00,
2013-10-22 09:56:00,31.0,26.7,30.04,NW,309,1.0,3.0,84,0.00,,,0.00,vanprod-2.3,2013-10-22 14:56:00,
2013-10-22 10:01:00,31.1,27.1,30.04,NW,309,0.0,0.0,85,0.00,,,0.00,vanprod-2.3,2013-10-22 15:01:00,
2013-10-22 10:06:00,31.4,27.1,30.04,NW,309,1.0,1.0,84,0.00,,,0.00,vanprod-2.3,2013-10-22 15:06:00,
2013-10-22 10:11:00,31.9,27.6,30.04,NW,309,1.0,0.0,84,0.00,,,0.00,vanprod-2.3,2013-10-22 15:11:00,
2013-10-22 10:16:00,32.2,27.9,30.04,NW,309,1.0,2.0,84,0.00,,,0.00,vanprod-2.3,2013-10-22 15:16:00,
2013-10-22 10:21:00,32.6,28.0,30.04,NW,309,2.0,3.0,83,0.00,,,0.00,vanprod-2.3,2013-10-22 15:21:00,
2013-10-22 10:26:00,32.7,27.8,30.04,NW,309,2.0,2.0,82,0.00,,,0.00,vanprod-2.3,2013-10-22 15:26:00,
2013-10-22 10:31:00,33.0,28.1,30.04,NW,309,0.0,0.0,82,0.00,,,0.00,vanprod-2.3,2013-10-22 15:31:00,
2013-10-22 10:36:00,33.3,28.4,30.04,NW,309,0.0,0.0,82,0.00,,,0.00,vanprod-2.3,2013-10-22 15:36:00,
2013-10-22 10:41:00,33.5,28.6,30.04,NW,309,0.0,1.0,82,0.00,,,0.00,vanprod-2.3,2013-10-22 15:41:00,
2013-10-22 10:46:00,33.5,28.6,30.05,NW,309,1.0,0.0,82,0.00,,,0.00,vanprod-2.3,2013-10-22 15:46:00,
2013-10-22 10:51:00,33.9,29.0,30.05,NW,309,0.0,1.0,82,0.00,,,0.00,vanprod-2.3,2013-10-22 15:51:00,
2013-10-22 10:56:00,34.4,29.2,30.05,NW,309,0.0,0.0,81,0.00,,,0.00,vanprod-2.3,2013-10-22 15:56:00,
2013-10-22 11:01:00,34.7,29.5,30.05,NW,309,0.0,2.0,81,0.00,,,0.00,vanprod-2.3,2013-10-22 16:01:00,
2013-10-22 11:06:00,35.1,29.6,30.05,NW,309,0.0,2.0,80,0.00,,,0.00,vanprod-2.3,2013-10-22 16:06:00,
2013-10-22 11:11:00,35.3,29.4,30.05,NW,309,2.0,0.0,79,0.00,,,0.00,vanprod-2.3,2013-10-22 16:11:00,
2013-10-22 11:16:00,35.3,29.1,30.05,NW,309,1.0,0.0,78,0.00,,,0.00,vanprod-2.3,2013-10-22 16:16:00,
2013-10-22 11:21:00,35.4,29.5,30.05,NW,309,1.0,0.0,79,0.00,,,0.00,vanprod-2.3,2013-10-22 16:21:00,
2013-10-22 11:26:00,35.8,29.6,30.05,NW,309,0.0,0.0,78,0.00,,,0.00,vanprod-2.3,2013-10-22 16:26:00,
2013-10-22 11:31:00,36.1,29.6,30.05,NW,309,2.0,0.0,77,0.00,,,0.00,vanprod-2.3,2013-10-22 16:31:00,
2013-10-22 11:36:00,36.4,29.9,30.05,NW,309,0.0,5.0,77,0.00,,,0.00,vanprod-2.3,2013-10-22 16:36:00,
2013-10-22 11:41:00,36.5,30.0,30.05,NW,309,1.0,1.0,77,0.00,,,0.00,vanprod-2.3,2013-10-22 16:41:00,
2013-10-22 11:46:00,36.7,29.9,30.05,NW,309,1.0,0.0,76,0.00,,,0.00,vanprod-2.3,2013-10-22 16:46:00,
2013-10-22 11:51:00,36.8,29.6,30.05,NW,309,2.0,6.0,75,0.00,,,0.00,vanprod-2.3,2013-10-22 16:51:00,
2013-10-22 11:56:00,37.0,29.2,30.05,NNW,340,2.0,3.0,73,0.00,,,0.00,vanprod-2.3,2013-10-22 16:56:00,
2013-10-22 12:01:00,36.8,29.0,30.05,NNW,344,2.0,3.0,73,0.00,,,0.00,vanprod-2.3,2013-10-22 17:01:00,
2013-10-22 12:06:00,37.0,29.2,30.05,NNW,344,1.0,0.0,73,0.00,,,0.00,vanprod-2.3,2013-10-22 17:06:00,
2013-10-22 12:11:00,37.4,29.6,30.05,NNW,344,1.0,2.0,73,0.00,,,0.00,vanprod-2.3,2013-10-22 17:11:00,
2013-10-22 12:16:00,37.5,28.6,30.05,NNW,343,1.0,5.0,70,0.00,,,0.00,vanprod-2.3,2013-10-22 17:16:00,
2013-10-22 12:21:00,37.8,29.3,30.05,NNW,343,1.0,3.0,71,0.00,,,0.00,vanprod-2.3,2013-10-22 17:21:00,
2013-10-22 12:26:00,38.0,29.4,30.05,NNW,343,1.0,5.0,71,0.00,,,0.00,vanprod-2.3,2013-10-22 17:26:00,
2013-10-22 12:31:00,37.8,29.3,30.05,North,349,1.0,2.0,71,0.00,,,0.00,vanprod-2.3,2013-10-22 17:31:00,
2013-10-22 12:36:00,37.8,28.6,30.05,North,350,3.0,3.0,69,0.00,,,0.00,vanprod-2.3,2013-10-22 17:36:00,
2013-10-22 12:41:00,37.8,28.9,30.06,North,350,2.0,2.0,70,0.00,,,0.00,vanprod-2.3,2013-10-22 17:41:00,
2013-10-22 12:46:00,38.0,28.0,30.05,North,352,4.0,4.0,67,0.00,,,0.00,vanprod-2.3,2013-10-22 17:46:00,
2013-10-22 12:51:00,38.0,28.0,30.05,North,358,4.0,7.0,67,0.00,,,0.00,vanprod-2.3,2013-10-22 17:51:00,
2013-10-22 12:56:00,38.1,28.5,30.05,North,1,4.0,4.0,68,0.00,,,0.00,vanprod-2.3,2013-10-22 17:56:00,
2013-10-22 13:01:00,38.4,29.1,30.05,North,1,1.0,2.0,69,0.00,,,0.00,vanprod-2.3,2013-10-22 18:01:00,
2013-10-22 13:06:00,38.7,28.7,30.05,North,1,1.0,6.0,67,0.00,,,0.00,vanprod-2.3,2013-10-22 18:06:00,
2013-10-22 13:11:00,38.4,28.0,30.05,North,360,2.0,2.0,66,0.00,,,0.00,vanprod-2.3,2013-10-22 18:11:00,
2013-10-22 13:16:00,38.4,28.4,30.05,North,360,2.0,2.0,67,0.00,,,0.00,vanprod-2.3,2013-10-22 18:16:00,
2013-10-22 13:21:00,38.4,27.7,30.05,NNE,17,1.0,0.0,65,0.00,,,0.00,vanprod-2.3,2013-10-22 18:21:00,
2013-10-22 13:26:00,38.4,28.4,30.05,NNE,13,2.0,2.0,67,0.00,,,0.00,vanprod-2.3,2013-10-22 18:26:00,
2013-10-22 13:31:00,38.1,26.6,30.05,North,7,5.0,5.0,63,0.00,,,0.00,vanprod-2.3,2013-10-22 18:31:00,
2013-10-22 13:36:00,38.3,27.6,30.05,North,7,2.0,3.0,65,0.00,,,0.00,vanprod-2.3,2013-10-22 18:36:00,
2013-10-22 13:41:00,38.3,27.2,30.04,North,4,4.0,4.0,64,0.00,,,0.00,vanprod-2.3,2013-10-22 18:41:00,
2013-10-22 13:46:00,38.3,27.2,30.04,North,6,4.0,4.0,64,0.00,,,0.00,vanprod-2.3,2013-10-22 18:46:00,
2013-10-22 13:51:00,38.3,26.0,30.04,North,360,5.0,5.0,61,0.00,,,0.00,vanprod-2.3,2013-10-22 18:51:00,
2013-10-22 13:56:00,38.1,27.0,30.04,North,360,1.0,4.0,64,0.00,,,0.00,vanprod-2.3,2013-10-22 18:56:00,
2013-10-22 14:01:00,38.1,26.2,30.04,North,355,4.0,6.0,62,0.00,,,0.00,vanprod-2.3,2013-10-22 19:01:00,
2013-10-22 14:06:00,38.3,26.0,30.04,NNW,343,2.0,5.0,61,0.00,,,0.00,vanprod-2.3,2013-10-22 19:06:00,
2013-10-22 14:11:00,38.4,24.5,30.04,North,360,5.0,5.0,57,0.00,,,0.00,vanprod-2.3,2013-10-22 19:11:00,
2013-10-22 14:16:00,38.6,25.5,30.04,North,360,0.0,1.0,59,0.00,,,0.00,vanprod-2.3,2013-10-22 19:16:00,
2013-10-22 14:21:00,38.6,25.1,30.04,North,351,3.0,3.0,58,0.00,,,0.00,vanprod-2.3,2013-10-22 19:21:00,
2013-10-22 14:26:00,38.4,24.9,30.04,NW,311,2.0,5.0,58,0.00,,,0.00,vanprod-2.3,2013-10-22 19:26:00,
2013-10-22 14:31:00,38.3,25.2,30.04,NW,316,1.0,1.0,59,0.00,,,0.00,vanprod-2.3,2013-10-22 19:31:00,
2013-10-22 14:36:00,38.3,25.2,30.04,NW,318,1.0,0.0,59,0.00,,,0.00,vanprod-2.3,2013-10-22 19:36:00,
2013-10-22 14:41:00,38.3,25.2,30.04,NW,321,3.0,3.0,59,0.00,,,0.00,vanprod-2.3,2013-10-22 19:41:00,
2013-10-22 14:46:00,38.3,25.2,30.04,NW,322,1.0,3.0,59,0.00,,,0.00,vanprod-2.3,2013-10-22 19:46:00,
2013-10-22 14:51:00,38.0,25.4,30.04,North,356,1.0,3.0,60,0.00,,,0.00,vanprod-2.3,2013-10-22 19:51:00,
2013-10-22 14:56:00,37.8,25.2,30.04,North,356,3.0,8.0,60,0.00,,,0.00,vanprod-2.3,2013-10-22 19:56:00,
2013-10-22 15:01:00,37.7,25.1,30.05,North,359,3.0,3.0,60,0.00,,,0.00,vanprod-2.3,2013-10-22 20:01:00,
2013-10-22 15:06:00,37.8,24.8,30.05,NNE,16,2.0,2.0,59,0.00,,,0.00,vanprod-2.3,2013-10-22 20:06:00,
2013-10-22 15:11:00,37.7,24.7,30.05,NNE,16,4.0,6.0,59,0.00,,,0.00,vanprod-2.3,2013-10-22 20:11:00,
2013-10-22 15:16:00,37.7,25.1,30.05,North,3,2.0,0.0,60,0.00,,,0.00,vanprod-2.3,2013-10-22 20:16:00,
2013-10-22 15:21:00,37.5,24.9,30.05,NW,304,3.0,9.0,60,0.00,,,0.00,vanprod-2.3,2013-10-22 20:21:00,
2013-10-22 15:26:00,37.7,25.5,30.05,NW,318,2.0,3.0,61,0.00,,,0.00,vanprod-2.3,2013-10-22 20:26:00,
2013-10-22 15:31:00,37.7,25.9,30.06,NW,320,1.0,0.0,62,0.00,,,0.00,vanprod-2.3,2013-10-22 20:31:00,
2013-10-22 15:36:00,37.7,25.1,30.06,North,356,2.0,2.0,60,0.00,,,0.00,vanprod-2.3,2013-10-22 20:36:00,
2013-10-22 15:41:00,37.7,25.1,30.06,North,358,3.0,3.0,60,0.00,,,0.00,vanprod-2.3,2013-10-22 20:41:00,
2013-10-22 15:46:00,37.7,24.7,30.06,NW,325,2.0,3.0,59,0.00,,,0.00,vanprod-2.3,2013-10-22 20:46:00,
2013-10-22 15:51:00,37.7,24.7,30.06,North,360,3.0,8.0,59,0.00,,,0.00,vanprod-2.3,2013-10-22 20:51:00,
2013-10-22 15:56:00,37.5,25.3,30.06,North,357,2.0,2.0,61,0.00,,,0.00,vanprod-2.3,2013-10-22 20:56:00,
2013-10-22 16:01:00,37.4,24.8,30.06,North,359,0.0,0.0,60,0.00,,,0.00,vanprod-2.3,2013-10-22 21:01:00,
2013-10-22 16:06:00,37.5,24.9,30.06,North,359,4.0,4.0,60,0.00,,,0.00,vanprod-2.3,2013-10-22 21:06:00,
2013-10-22 16:11:00,37.4,24.4,30.06,North,350,3.0,3.0,59,0.00,,,0.00,vanprod-2.3,2013-10-22 21:11:00,
2013-10-22 16:16:00,37.4,24.8,30.06,North,353,1.0,2.0,60,0.00,,,0.00,vanprod-2.3,2013-10-22 21:16:00,
2013-10-22 16:21:00,37.4,24.8,30.06,WNW,282,2.0,4.0,60,0.00,,,0.00,vanprod-2.3,2013-10-22 21:21:00,
2013-10-22 16:26:00,37.3,24.7,30.06,North,1,4.0,4.0,60,0.00,,,0.00,vanprod-2.3,2013-10-22 21:26:00,
2013-10-22 16:31:00,37.3,24.3,30.06,North,360,0.0,0.0,59,0.00,,,0.00,vanprod-2.3,2013-10-22 21:31:00,
2013-10-22 16:36:00,37.4,24.4,30.06,North,360,0.0,0.0,59,0.00,,,0.00,vanprod-2.3,2013-10-22 21:36:00,
2013-10-22 16:41:00,37.5,24.1,30.06,NNW,340,2.0,4.0,58,0.00,,,0.00,vanprod-2.3,2013-10-22 21:41:00,
2013-10-22 16:46:00,37.5,24.5,30.06,WNW,287,2.0,0.0,59,0.00,,,0.00,vanprod-2.3,2013-10-22 21:46:00,
2013-10-22 16:51:00,37.5,24.1,30.06,North,355,3.0,6.0,58,0.00,,,0.00,vanprod-2.3,2013-10-22 21:51:00,
2013-10-22 16:56:00,37.7,24.3,30.06,North,351,2.0,2.0,58,0.00,,,0.00,vanprod-2.3,2013-10-22 21:56:00,
2013-10-22 17:01:00,37.7,23.9,30.06,NNW,344,5.0,5.0,57,0.00,,,0.00,vanprod-2.3,2013-10-22 22:01:00,
2013-10-22 17:06:00,37.5,23.7,30.06,NNW,347,2.0,0.0,57,0.00,,,0.00,vanprod-2.3,2013-10-22 22:06:00,
2013-10-22 17:11:00,37.5,23.7,30.06,North,352,2.0,0.0,57,0.00,,,0.00,vanprod-2.3,2013-10-22 22:11:00,
2013-10-22 17:16:00,37.5,24.1,30.06,North,352,1.0,3.0,58,0.00,,,0.00,vanprod-2.3,2013-10-22 22:16:00,
2013-10-22 17:21:00,37.5,24.1,30.06,North,352,0.0,0.0,58,0.00,,,0.00,vanprod-2.3,2013-10-22 22:21:00,
2013-10-22 17:26:00,37.7,24.7,30.06,North,352,0.0,0.0,59,0.00,,,0.00,vanprod-2.3,2013-10-22 22:26:00,
2013-10-22 17:31:00,37.7,24.7,30.06,North,352,0.0,2.0,59,0.00,,,0.00,vanprod-2.3,2013-10-22 22:31:00,
2013-10-22 17:36:00,37.7,24.3,30.06,North,352,1.0,1.0,58,0.00,,,0.00,vanprod-2.3,2013-10-22 22:36:00,
2013-10-22 17:41:00,37.8,24.8,30.06,North,349,1.0,1.0,59,0.00,,,0.00,vanprod-2.3,2013-10-22 22:41:00,
2013-10-22 17:46:00,37.7,24.3,30.06,WNW,289,2.0,2.0,58,0.00,,,0.00,vanprod-2.3,2013-10-22 22:46:00,
2013-10-22 17:51:00,37.7,25.1,30.06,WSW,244,1.0,3.0,60,0.00,,,0.00,vanprod-2.3,2013-10-22 22:51:00,
2013-10-22 17:56:00,37.5,24.5,30.07,NNW,342,1.0,3.0,59,0.00,,,0.00,vanprod-2.3,2013-10-22 22:56:00,
2013-10-22 18:01:00,37.5,24.5,30.06,NNW,347,1.0,0.0,59,0.00,,,0.00,vanprod-2.3,2013-10-22 23:01:00,
2013-10-22 18:06:00,37.4,24.8,30.06,NNW,347,0.0,1.0,60,0.00,,,0.00,vanprod-2.3,2013-10-22 23:06:00,
2013-10-22 18:11:00,37.4,24.8,30.06,NNW,347,0.0,1.0,60,0.00,,,0.00,vanprod-2.3,2013-10-22 23:11:00,
2013-10-22 18:16:00,37.3,24.3,30.06,NNW,348,2.0,2.0,59,0.00,,,0.00,vanprod-2.3,2013-10-22 23:16:00,
2013-10-22 18:21:00,37.1,24.5,30.06,NNW,347,1.0,2.0,60,0.00,,,0.00,vanprod-2.3,2013-10-22 23:21:00,
2013-10-22 18:26:00,37.1,24.9,30.06,NNW,347,0.0,0.0,61,0.00,,,0.00,vanprod-2.3,2013-10-22 23:26:00,
2013-10-22 18:31:00,37.0,24.4,30.07,NNW,329,1.0,1.0,60,0.00,,,0.00,vanprod-2.3,2013-10-22 23:31:00,
2013-10-22 18:36:00,37.0,24.8,30.07,NNW,329,0.0,4.0,61,0.00,,,0.00,vanprod-2.3,2013-10-22 23:36:00,
2013-10-22 18:41:00,36.8,24.6,30.07,NNW,337,0.0,0.0,61,0.00,,,0.00,vanprod-2.3,2013-10-22 23:41:00,
2013-10-22 18:46:00,36.8,24.6,30.07,NNW,337,0.0,1.0,61,0.00,,,0.00,vanprod-2.3,2013-10-22 23:46:00,
2013-10-22 18:51:00,36.7,24.9,30.07,NNW,337,0.0,0.0,62,0.00,,,0.00,vanprod-2.3,2013-10-22 23:51:00,
2013-10-22 18:56:00,36.7,24.9,30.06,NNW,337,1.0,0.0,62,0.00,,,0.00,vanprod-2.3,2013-10-22 23:56:00,
2013-10-22 19:01:00,36.5,25.1,30.06,NNW,337,0.0,0.0,63,0.00,,,0.00,vanprod-2.3,2013-10-23 00:01:00,
2013-10-22 19:06:00,36.4,24.6,30.06,NNW,337,1.0,0.0,62,0.00,,,0.00,vanprod-2.3,2013-10-23 00:06:00,
2013-10-22 19:11:00,36.3,24.9,30.07,NNW,337,0.0,2.0,63,0.00,,,0.00,vanprod-2.3,2013-10-23 00:11:00,
2013-10-22 19:16:00,36.1,24.7,30.07,NNW,337,1.0,1.0,63,0.00,,,0.00,vanprod-2.3,2013-10-23 00:16:00,
2013-10-22 19:21:00,36.0,25.0,30.07,NNW,337,1.0,1.0,64,0.00,,,0.00,vanprod-2.3,2013-10-23 00:21:00,
2013-10-22 19:26:00,35.8,24.8,30.07,NNW,337,1.0,1.0,64,0.00,,,0.00,vanprod-2.3,2013-10-23 00:26:00,
2013-10-22 19:31:00,35.7,25.1,30.07,NNW,337,1.0,0.0,65,0.00,,,0.00,vanprod-2.3,2013-10-23 00:31:00,
2013-10-22 19:36:00,35.5,24.9,30.07,NNW,337,1.0,1.0,65,0.00,,,0.00,vanprod-2.3,2013-10-23 00:36:00,
2013-10-22 19:41:00,35.5,24.9,30.07,NNW,337,0.0,1.0,65,0.00,,,0.00,vanprod-2.3,2013-10-23 00:41:00,
2013-10-22 19:46:00,35.5,24.9,30.07,NNW,337,0.0,0.0,65,0.00,,,0.00,vanprod-2.3,2013-10-23 00:46:00,
2013-10-22 19:51:00,35.5,24.9,30.07,NNW,337,0.0,0.0,65,0.00,,,0.00,vanprod-2.3,2013-10-23 00:51:00,
2013-10-22 19:56:00,35.5,24.9,30.07,NNW,337,1.0,0.0,65,0.00,,,0.00,vanprod-2.3,2013-10-23 00:56:00,
2013-10-22 20:01:00,35.5,24.9,30.07,NNW,337,0.0,2.0,65,0.00,,,0.00,vanprod-2.3,2013-10-23 01:01:00,
2013-10-22 20:06:00,35.5,25.3,30.07,NNW,337,0.0,0.0,66,0.00,,,0.00,vanprod-2.3,2013-10-23 01:06:00,
2013-10-22 20:11:00,35.5,25.6,30.07,NNW,337,0.0,0.0,67,0.00,,,0.00,vanprod-2.3,2013-10-23 01:11:00,
2013-10-22 20:16:00,35.5,25.6,30.07,NNW,337,0.0,0.0,67,0.00,,,0.00,vanprod-2.3,2013-10-23 01:16:00,
2013-10-22 20:21:00,35.4,25.5,30.07,NNW,337,0.0,0.0,67,0.00,,,0.00,vanprod-2.3,2013-10-23 01:21:00,
2013-10-22 20:26:00,35.4,25.5,30.07,NNW,337,0.0,1.0,67,0.00,,,0.00,vanprod-2.3,2013-10-23 01:26:00,
2013-10-22 20:31:00,35.4,25.9,30.07,NNW,337,0.0,0.0,68,0.00,,,0.00,vanprod-2.3,2013-10-23 01:31:00,
2013-10-22 20:36:00,35.4,25.5,30.07,NNW,337,0.0,1.0,67,0.00,,,0.00,vanprod-2.3,2013-10-23 01:36:00,
2013-10-22 20:41:00,35.5,26.0,30.07,NNW,337,0.0,0.0,68,0.00,,,0.00,vanprod-2.3,2013-10-23 01:41:00,
2013-10-22 20:46:00,35.5,26.0,30.07,NNW,337,0.0,0.0,68,0.00,,,0.00,vanprod-2.3,2013-10-23 01:46:00,
2013-10-22 20:51:00,35.5,25.6,30.07,NNW,337,0.0,0.0,67,0.00,,,0.00,vanprod-2.3,2013-10-23 01:51:00,
2013-10-22 20:56:00,35.5,25.6,30.07,NNW,337,0.0,0.0,67,0.00,,,0.00,vanprod-2.3,2013-10-23 01:56:00,
2013-10-22 21:01:00,35.7,26.2,30.07,NNW,337,0.0,0.0,68,0.00,,,0.00,vanprod-2.3,2013-10-23 02:01:00,
2013-10-22 21:06:00,35.7,26.2,30.07,NNW,337,0.0,0.0,68,0.00,,,0.00,vanprod-2.3,2013-10-23 02:06:00,
2013-10-22 21:11:00,35.7,26.9,30.07,NNW,337,0.0,0.0,70,0.00,,,0.00,vanprod-2.3,2013-10-23 02:11:00,
2013-10-22 21:16:00,35.7,26.5,30.07,NNW,337,0.0,1.0,69,0.00,,,0.00,vanprod-2.3,2013-10-23 02:16:00,
2013-10-22 21:21:00,35.7,26.5,30.07,NNW,337,0.0,0.0,69,0.00,,,0.00,vanprod-2.3,2013-10-23 02:21:00,
2013-10-22 21:26:00,35.5,26.7,30.07,NNW,337,0.0,0.0,70,0.00,,,0.00,vanprod-2.3,2013-10-23 02:26:00,
2013-10-22 21:31:00,35.5,26.4,30.07,NNW,337,0.0,0.0,69,0.00,,,0.00,vanprod-2.3,2013-10-23 02:31:00,
2013-10-22 21:36:00,35.7,26.9,30.07,NNW,337,0.0,0.0,70,0.00,,,0.00,vanprod-2.3,2013-10-23 02:36:00,
2013-10-22 21:41:00,35.7,26.9,30.07,NNW,337,0.0,0.0,70,0.00,,,0.00,vanprod-2.3,2013-10-23 02:41:00,
2013-10-22 21:46:00,35.7,26.9,30.07,NNW,337,0.0,0.0,70,0.00,,,0.00,vanprod-2.3,2013-10-23 02:46:00,
2013-10-22 21:51:00,35.7,26.9,30.07,NNW,337,0.0,0.0,70,0.00,,,0.00,vanprod-2.3,2013-10-23 02:51:00,
2013-10-22 21:56:00,35.7,26.9,30.08,NNW,337,0.0,0.0,70,0.00,,,0.00,vanprod-2.3,2013-10-23 02:56:00,
2013-10-22 22:01:00,35.7,27.2,30.08,NNW,337,0.0,0.0,71,0.00,,,0.00,vanprod-2.3,2013-10-23 03:01:00,
2013-10-22 22:06:00,35.5,27.0,30.08,NNW,337,0.0,0.0,71,0.00,,,0.00,vanprod-2.3,2013-10-23 03:06:00,
2013-10-22 22:11:00,35.4,26.9,30.08,NNW,337,0.0,1.0,71,0.00,,,0.00,vanprod-2.3,2013-10-23 03:11:00,
2013-10-22 22:16:00,35.4,27.3,30.08,NNW,337,0.0,0.0,72,0.00,,,0.00,vanprod-2.3,2013-10-23 03:16:00,
2013-10-22 22:21:00,35.4,27.3,30.08,NNW,337,0.0,0.0,72,0.00,,,0.00,vanprod-2.3,2013-10-23 03:21:00,
2013-10-22 22:26:00,35.4,27.3,30.07,NNW,337,0.0,0.0,72,0.00,,,0.00,vanprod-2.3,2013-10-23 03:26:00,
2013-10-22 22:31:00,35.3,27.2,30.07,NNW,337,0.0,0.0,72,0.00,,,0.00,vanprod-2.3,2013-10-23 03:31:00,
2013-10-22 22:36:00,35.3,27.2,30.07,NNW,337,1.0,0.0,72,0.00,,,0.00,vanprod-2.3,2013-10-23 03:36:00,
2013-10-22 22:41:00,35.1,27.3,30.07,NNW,337,0.0,0.0,73,0.00,,,0.00,vanprod-2.3,2013-10-23 03:41:00,
2013-10-22 22:46:00,35.1,27.3,30.07,NNW,337,0.0,0.0,73,0.00,,,0.00,vanprod-2.3,2013-10-23 03:46:00,
2013-10-22 22:51:00,35.1,27.3,30.07,NNW,337,0.0,0.0,73,0.00,,,0.00,vanprod-2.3,2013-10-23 03:51:00,
2013-10-22 22:56:00,35.1,27.3,30.07,NNW,337,0.0,0.0,73,0.00,,,0.00,vanprod-2.3,2013-10-23 03:56:00,
2013-10-22 23:01:00,35.0,27.6,30.07,NNW,337,0.0,0.0,74,0.00,,,0.00,vanprod-2.3,2013-10-23 04:01:00,
2013-10-22 23:02:00,35.0,27.6,30.07,NNW,337,0.0,0.0,74,0.00,,,0.00,vanprod-2.3,2013-10-23 04:02:00,
2013-10-22 23:07:00,35.0,27.6,30.07,NNW,337,0.0,0.0,74,0.00,,,0.00,vanprod-2.3,2013-10-23 04:07:00,
2013-10-22 23:12:00,35.0,27.6,30.07,NNW,337,0.0,0.0,74,0.00,,,0.00,vanprod-2.3,2013-10-23 04:12:00,
2013-10-22 23:17:00,35.0,27.6,30.07,NNW,337,0.0,0.0,74,0.00,,,0.00,vanprod-2.3,2013-10-23 04:17:00,
2013-10-22 23:22:00,34.8,27.4,30.06,NNW,337,0.0,0.0,74,0.00,,,0.00,vanprod-2.3,2013-10-23 04:22:00,
2013-10-22 23:27:00,34.8,27.4,30.06,NNW,337,0.0,0.0,74,0.00,,,0.00,vanprod-2.3,2013-10-23 04:27:00,
2013-10-22 23:32:00,34.8,27.4,30.06,NNW,337,0.0,0.0,74,0.00,,,0.00,vanprod-2.3,2013-10-23 04:32:00,
2013-10-22 23:37:00,34.8,27.7,30.06,NNW,337,0.0,0.0,75,0.00,,,0.00,vanprod-2.3,2013-10-23 04:37:00,
2013-10-22 23:42:00,34.8,27.7,30.06,NNW,337,0.0,0.0,75,0.00,,,0.00,vanprod-2.3,2013-10-23 04:42:00,
2013-10-22 23:47:00,34.8,27.7,30.06,NNW,337,0.0,0.0,75,0.00,,,0.00,vanprod-2.3,2013-10-23 04:47:00,
2013-10-22 23:52:00,34.7,27.6,30.06,NNW,337,0.0,0.0,75,0.00,,,0.00,vanprod-2.3,2013-10-23 04:52:00,
2013-10-22 23:57:00,34.7,27.6,30.06,NNW,337,0.0,0.0,75,0.00,,,0.00,vanprod-2.3,2013-10-23 04:57:00,